Weather in Aswan

Egypt     24°05′08″N   32°54′40″E
temp.,
°C
wind,
m/s
gust,
m/s
humid.,
%
clouds,
%
prec.,
mm/h
press.,
hPa
HPBL,
m
24 october, sun
sun2423:00+24n510340 0.0 1016164
02:00+22n59400 0.0 1015149
05:00+20n47480 0.0 1015119
08:00+23n67390 0.0 1016357
11:00+29n44240 0.0 1015841
14:00+32nw54170 0.0 10121213
17:00+30nnw58150 0.0 1012129
20:00+26nnw611200 0.0 1014187
25 october, mon
mon2523:00+22nnw510240 0.0 1014166
02:00+21n48300 0.0 1013130
05:00+19n46380 0.0 101395
08:00+22n45320 0.0 1015291
11:00+29nnw43180 0.0 1013786
14:00+32nw33140 0.0 10111182
17:00+29nnw44170 0.0 101143
20:00+26n45210 0.0 101247
26 october, tue
tue2623:00+23n59290 0.0 1013142
02:00+22n59370 0.0 1012150
05:00+20n46430 0.0 101283
08:00+24n45340 0.0 1014277
11:00+30nnw32200 0.0 1012883
14:00+32wnw32160 0.0 10091497
17:00+30nnw44180 0.0 101036
20:00+27n45203 0.0 101149
27 october, wed
wed2723:00+25nne58220 0.0 1012116
02:00+23n46400 0.0 101172
05:00+22nne45560 0.0 101268
08:00+26nne45440 0.0 1014360
11:00+31nne43290 0.0 10121066
14:00+34nnw32200 0.0 10102326
17:00+32nnw58190 0.0 1010113
20:00+28n611200 0.0 1012159
28 october, thu
thu2823:00+26ne611450 0.0 1012182
02:00+25ne48402 0.0 1012130
05:00+23ne4634100 0.0 101387
08:00+27ne58244 0.0 1015410
11:00+33ne56155 0.0 10131497
14:00+35nne44125 0.0 10102493
17:00+32n44147 0.0 101137
20:00+28nne581727 0.0 101394